Station PRHH1 - 1612401 - Pearl Harbor, HI Image indicating link to RSS feed of recent meteorological observations for station PRHH1


Conditions at PRHH1 as of
(11:30 pm HAST on 06/16/2024)
0930 GMT on 06/17/2024:
     

Click on the graph icon in the table below to see a time series plot of the last five days of that observation.

5-day plot - Wind Direction Wind Direction (WDIR):NNE ( 20 deg true )
5-day plot - Wind Speed Wind Speed (WSPD): 1.0 kts
5-day plot - Wind Gust Wind Gust (GST): 6.0 kts
5-day plot - Atmospheric Pressure Atmospheric Pressure (PRES):30.10 in
5-day plot - Air Temperature Air Temperature (ATMP): 75.4 °F
5-day plot - Wind Speed at 10 Meters Wind Speed at 10 meters (WSPD10M): 1.9 kts
5-day plot - Wind Speed at 20 Meters Wind Speed at 20 meters (WSPD20M): 1.9 kts
5-day plot -  Wind Speed, Wind Gust and Atmospheric Pressure Combined plot of Wind Speed, Gust, and Air Pressure
NOS Water Level Observation Network Water Level
Previous observations
TIME
(HAST)
5-day plot - Wind Direction
WDIR
 
5-day plot - Wind Speed
WSPD
kts
5-day plot - Wind Gust
GST
kts
5-day plot - Wave Height
WVHT
ft
5-day plot - Dominant Wave Period
DPD
sec
5-day plot - Average Wave Period
APD
sec
5-day plot - Mean Wave Direction
MWD
 
5-day plot - Atmospheric Pressure
PRES
in
5-day plot - Pressure Tendency
PTDY
in
5-day plot - Air Temperature
ATMP
°F
5-day plot - Water Temperature
WTMP
°F
5-day plot - Dew Point
DEWP
°F
5-day plot - Salinity
SAL
psu
5-day plot - Visibility
VIS
nmi
5-day plot - Tide (above MLLW)
TIDE
ft
2024-06-16 11:24 pm NW 2.9 6.0----30.10- 75.2-----
2024-06-16 11:18 pm NW 2.9 6.0----30.10- 75.4-----
2024-06-16 11:12 pmNNW 6.0 8.0----30.10- 75.4-----
2024-06-16 11:06 pmNNE 6.0 7.0----30.10- 74.7-----
2024-06-16 11:00 pmNNE 4.1 5.1----30.11+0.05 74.3-----
2024-06-16 10:54 pm NE 2.9 5.1----30.11- 74.1-----
2024-06-16 10:48 pmENE 1.9 7.0----30.11- 74.5-----
2024-06-16 10:42 pm E 5.1 7.0----30.11- 75.4-----
2024-06-16 10:36 pm NE 4.1 7.0----30.11- 75.9-----
2024-06-16 10:30 pm NE 2.9 6.0----30.10- 76.3-----
2024-06-16 10:24 pmNNE 6.0 7.0----30.10- 76.3-----
2024-06-16 10:18 pm NE 1.9 4.1----30.10- 76.1-----
2024-06-16 10:12 pm NE 1.9 5.1----30.10- 76.3-----
2024-06-16 10:06 pm NE 4.1 5.1----30.09- 76.3-----
2024-06-16 10:00 pmNNE 5.1 7.0----30.09+0.05 76.3-----
2024-06-16 09:54 pmNNE 4.1 7.0----30.09- 76.6-----
2024-06-16 09:48 pmNNE 5.1 8.9----30.09- 76.6-----
2024-06-16 09:42 pmNNE 7.0 9.9----30.09- 76.6-----
2024-06-16 09:36 pmNNE 7.0 14.0----30.09- 76.5-----
2024-06-16 09:30 pmNNE 11.1 15.0----30.09- 76.6-----
2024-06-16 09:24 pmNNE 8.9 12.0----30.08- 76.8-----
2024-06-16 09:18 pmNNE 7.0 8.9----30.08- 76.6-----
2024-06-16 09:12 pmNNE 5.1 9.9----30.08- 76.6-----
2024-06-16 09:06 pmNNE 8.9 14.0----30.08- 76.6-----
2024-06-16 09:00 pm N 8.0 12.0----30.08+0.04 76.6-----
2024-06-16 08:54 pmNNE 8.9 13.0----30.08- 76.6-----
2024-06-16 08:48 pmNNE 8.9 13.0----30.07- 76.5-----
2024-06-16 08:42 pmNNE 9.9 12.0----30.07- 76.6-----
2024-06-16 08:36 pmNNE 7.0 13.0----30.07- 76.3-----
2024-06-16 08:30 pmNNE 12.0 15.0----30.07- 76.6-----
2024-06-16 08:24 pmNNE 6.0 9.9----30.06- 76.3-----
2024-06-16 08:18 pmNNE 5.1 9.9----30.06- 76.1-----
2024-06-16 08:12 pmNNE 7.0 12.0----30.06- 76.3-----
2024-06-16 08:06 pmNNE 8.9 15.0----30.06- 76.3-----
2024-06-16 08:00 pmNNE 8.0 11.1----30.06+0.04 76.5-----
2024-06-16 07:54 pm NE 9.9 14.0----30.06- 76.5-----
2024-06-16 07:48 pmNNE 7.0 9.9----30.06- 76.6-----
2024-06-16 07:42 pmNNE 8.0 14.0----30.05- 76.8-----
2024-06-16 07:36 pm N 8.9 12.0----30.05- 77.2-----
2024-06-16 07:30 pmNNE 8.0 9.9----30.05- 76.8-----
2024-06-16 07:24 pm NE 6.0 15.9----30.05- 76.6-----
2024-06-16 07:18 pmNNE 12.0 17.1------ 77.5-----
2024-06-16 07:12 pmNNE 7.0 12.0------ 77.2-----
2024-06-16 07:06 pmNNE 12.0 17.1------ 77.5-----
2024-06-16 07:00 pmNNE 11.1 14.0----30.04+0.01------
2024-06-16 06:54 pmNNE 12.0 14.0----30.04-------
2024-06-16 06:48 pmNNE 11.1 15.0----30.04-------
2024-06-16 06:42 pm N 12.0 14.0----30.04-------
2024-06-16 06:36 pm N 11.1 15.9----30.03-------
2024-06-16 06:30 pmNNE 11.1 15.0----30.03-------
2024-06-16 06:24 pm N 12.0 15.0----30.03-------
2024-06-16 06:18 pmNNE 12.0 15.9----30.03- 78.3-----
2024-06-16 06:12 pmNNE 11.1 15.9----30.03- 78.3-----
2024-06-16 06:06 pmNNE 12.0 15.9----30.03- 78.3-----
2024-06-16 06:00 pm-------30.03+0.00 78.6-----
2024-06-16 05:54 pm-------30.03- 78.3-----
2024-06-16 05:48 pm N 8.9 14.0----30.03-------
2024-06-16 05:42 pmNNE 13.0 17.1----30.02-------
2024-06-16 05:36 pm N 12.0 17.1----30.02-------
2024-06-16 05:30 pm N 14.0 18.1----30.02- 78.4-----
2024-06-16 05:24 pm N 14.0 18.1----30.02- 78.4-----
2024-06-16 05:18 pmNNE 13.0 19.0----30.02- 78.6-----
2024-06-16 05:12 pm N 15.9 20.0----30.02- 78.3-----
2024-06-16 05:06 pmNNE 12.0 17.1----30.02- 78.8-----
2024-06-16 05:00 pmNNE 13.0 19.0----30.02-0.02 78.8-----
2024-06-16 04:54 pm N 15.9 20.0----30.01- 78.3-----
2024-06-16 04:48 pmNNE 13.0 18.1----30.01- 78.6-----
2024-06-16 04:42 pmNNE 14.0 19.0----30.02- 78.4-----
2024-06-16 04:36 pm N 15.9 21.0----30.01- 78.3-----
2024-06-16 04:30 pm N 14.0 17.1----30.02- 78.1-----
2024-06-16 04:24 pm N 15.0 20.0----30.02- 77.7-----
2024-06-16 04:18 pm N 15.0 18.1----30.02- 78.3-----
2024-06-16 04:12 pm N 11.1 14.0----30.03- 77.9-----
2024-06-16 04:06 pmNNW 9.9 12.0----30.03- 77.7-----
2024-06-16 04:00 pm N 12.0 15.9----30.03-0.02 77.9-----
2024-06-16 03:54 pm N 12.0 17.1----30.03- 77.0-----
2024-06-16 03:48 pmNNE 13.0 17.1----30.03- 79.0-----
2024-06-16 03:42 pm N 9.9 14.0----30.03- 78.6-----
2024-06-16 03:36 pmNNW 11.1 14.0----30.03- 78.1-----
2024-06-16 03:30 pm N 12.0 17.1------ 77.5-----
2024-06-16 03:24 pm N 9.9 14.0------ 79.0-----
2024-06-16 03:18 pmNNE 8.9 15.0------ 79.5-----
2024-06-16 03:12 pm N 13.0 18.1------ 79.7-----
2024-06-16 03:06 pmNNE 9.9 13.0------ 79.7-----
2024-06-16 03:00 pm N 9.9 15.9----30.03-0.03------
2024-06-16 02:54 pmNNE 9.9 13.0----30.03-------
2024-06-16 02:48 pmNNE 12.0 15.0----30.03-------
2024-06-16 02:42 pm N 8.9 14.0----30.03-------
2024-06-16 02:36 pm N 12.0 17.1----30.03-------
2024-06-16 02:30 pmNNE 11.1 14.0----30.03-------
2024-06-16 02:24 pmNNE 12.0 14.0----30.03-------
2024-06-16 02:18 pm N 12.0 15.0----30.03- 79.2-----
2024-06-16 02:12 pm N 12.0 17.1----30.04- 79.0-----
2024-06-16 02:06 pm N 12.0 15.0----30.04- 78.8-----
2024-06-16 02:00 pm N 11.1 15.9----30.04-0.03 79.0-----
2024-06-16 01:54 pm N 11.1 13.0----30.04- 79.0-----
2024-06-16 01:48 pm N 13.0 18.1----30.04- 78.6-----
2024-06-16 01:42 pmNNE 11.1 19.0----30.04- 79.3-----
2024-06-16 01:36 pmNNE 12.0 19.0----30.04- 79.3-----
2024-06-16 01:30 pm N 13.0 19.0----30.04- 79.3-----
2024-06-16 01:24 pm N 14.0 20.0----30.04- 78.4-----
2024-06-16 01:18 pm N 15.0 19.0----30.04- 78.6-----
2024-06-16 01:12 pm N 17.1 20.0----30.05- 78.4-----
2024-06-16 01:06 pm N 13.0 15.9----30.05- 79.0-----
2024-06-16 01:00 pm N 14.0 18.1----30.05-0.04------
2024-06-16 12:54 pm N 15.0 21.0----30.05-------
2024-06-16 12:48 pm N 15.0 19.0----30.05- 79.2-----
2024-06-16 12:42 pmNNE 14.0 18.1----30.06- 80.4-----
2024-06-16 12:36 pmNNE 13.0 18.1----30.06- 80.4-----
2024-06-16 12:30 pm N 15.9 19.0------ 79.0-----
2024-06-16 12:24 pm N 14.0 17.1------ 79.0-----
2024-06-16 12:18 pm N 15.9 19.0----30.06- 79.0-----
2024-06-16 12:12 pm N 17.1 22.0----30.06- 78.8-----
2024-06-16 12:06 pmNNE 13.0 19.0----30.06- 80.2-----
2024-06-16 12:00 pmNNE 11.1 15.9----30.06-0.03 81.1-----
2024-06-16 11:54 amNNE 13.0 17.1----30.07- 81.0-----
2024-06-16 11:48 am N 12.0 17.1----30.07-------
2024-06-16 11:42 amNNE 12.0 17.1----30.07-------
2024-06-16 11:36 am N 12.0 19.0----30.07-------
2024-06-16 11:30 am N 17.1 19.0----30.07- 79.0-----
2024-06-16 11:24 am N 11.1 17.1----30.07- 79.5-----
2024-06-16 11:18 amNNE 11.1 17.1----30.07-------
2024-06-16 11:12 am NE 12.0 19.0----30.07-------
2024-06-16 11:06 amNNE 13.0 17.1----30.07-------
2024-06-16 11:00 amNNE 13.0 17.1----30.07-0.01 80.8-----
2024-06-16 10:54 amNNE 13.0 18.1----30.08- 80.6-----
2024-06-16 10:48 amNNE 11.1 17.1----30.08-------
2024-06-16 10:42 amNNE 12.0 19.0----30.08-------
2024-06-16 10:36 amNNE 14.0 19.0----30.08-------
2024-06-16 10:30 amNNE 11.1 15.9----30.08- 80.4-----
2024-06-16 10:24 amNNE 12.0 17.1----30.08- 80.2-----
2024-06-16 10:18 am N 13.0 15.9----30.08- 80.1-----
2024-06-16 10:12 amNNE 9.9 15.0----30.08- 80.4-----
2024-06-16 10:06 amNNE 9.9 15.9----30.08- 80.1-----
2024-06-16 10:00 am N 11.1 15.0----30.09+0.00 79.2-----
2024-06-16 09:54 am N 11.1 14.0----30.09- 78.6-----
2024-06-16 09:48 am N 9.9 13.0----30.09- 79.0-----
2024-06-16 09:42 am N 11.1 15.0----30.09- 78.8-----
2024-06-16 09:36 am N 9.9 15.0----30.09- 78.6-----
2024-06-16 09:30 amNNE 8.9 12.0----30.09-------
2024-06-16 09:24 amNNE 9.9 13.0----30.09-------
2024-06-16 09:18 amNNE 8.9 15.0----30.09- 79.3-----
2024-06-16 09:12 amNNE 11.1 15.0----30.09- 79.3-----
2024-06-16 09:06 amNNE 7.0 11.1----30.09- 79.3-----
2024-06-16 09:00 amNNE 9.9 12.0----30.09+0.03------
2024-06-16 08:54 amNNE 9.9 13.0----30.09-------
2024-06-16 08:48 am NE 7.0 11.1----30.09-------
2024-06-16 08:42 amNNE 8.9 14.0----30.09-------
2024-06-16 08:36 am NE 8.9 14.0----30.09-------
2024-06-16 08:30 amNNE 11.1 14.0----30.09- 78.6-----
2024-06-16 08:24 amNNE 8.0 14.0----30.09- 78.3-----
2024-06-16 08:18 amNNE 12.0 15.0----30.09- 78.1-----
2024-06-16 08:12 amNNE 11.1 15.0----30.09- 78.1-----
2024-06-16 08:06 amNNE 11.1 15.0----30.09- 77.7-----
2024-06-16 08:00 amNNE 11.1 15.9----30.09+0.03 77.4-----
2024-06-16 07:54 amNNE 9.9 15.0----30.09- 77.9-----
2024-06-16 07:48 amNNE 8.9 15.0----30.09- 77.9-----
2024-06-16 07:42 amNNE 12.0 15.0----30.09- 77.5-----
2024-06-16 07:36 amNNE 7.0 9.9----30.09- 77.0-----
2024-06-16 07:30 am NE 4.1 5.1----30.09- 77.7-----
2024-06-16 07:24 am NE 2.9 5.1----30.09- 77.5-----
2024-06-16 07:18 am- 0.0 5.1----30.09- 76.8-----
2024-06-16 07:12 am E 1.9 6.0----30.08- 76.5-----
2024-06-16 07:06 am NE 5.1 7.0----30.08- 76.6-----
2024-06-16 07:00 am NE 5.1 8.0----30.08+0.02 76.5-----
2024-06-16 06:54 amNNE 6.0 8.0----30.08- 76.6-----
2024-06-16 06:48 amNNE 6.0 9.9----30.07-------
2024-06-16 06:42 amNNE 5.1 7.0----30.07-------
2024-06-16 06:36 amNNE 6.0 8.9----30.07-------
2024-06-16 06:30 amNNE 4.1 7.0----30.07-------
2024-06-16 06:24 amNNE 5.1 7.0----30.07-------
2024-06-16 06:18 amNNE 7.0 9.9----30.07- 76.3-----
2024-06-16 06:12 amNNE 7.0 9.9----30.07- 76.3-----
2024-06-16 06:06 amNNE 7.0 9.9----30.07- 76.1-----
2024-06-16 06:00 am NE 5.1 9.9----30.07+0.01 75.9-----
2024-06-16 05:54 amNNE 6.0 9.9----30.06- 76.1-----
2024-06-16 05:48 amNNE 7.0 9.9----30.06-------
2024-06-16 05:42 amNNE 6.0 8.0----30.06-------
2024-06-16 05:36 am NE 2.9 6.0----30.06-------
2024-06-16 05:30 am NE 4.1 8.0----30.06- 76.3-----
2024-06-16 05:24 amNNE 7.0 9.9----30.06- 76.5-----
2024-06-16 05:18 amNNE 7.0 8.9----30.06-------
2024-06-16 05:12 am N 7.0 11.1----30.06-------
2024-06-16 05:06 amNNE 7.0 13.0----30.06-------
2024-06-16 05:00 am NE 8.0 12.0----30.06+0.00 76.6-----
2024-06-16 04:54 amNNE 7.0 9.9----30.06- 77.0-----
2024-06-16 04:48 am N 7.0 8.9----30.06-------
2024-06-16 04:42 amNNE 5.1 7.0----30.06-------
2024-06-16 04:36 amNNE 5.1 8.9----30.06-------
2024-06-16 04:30 am-------30.06-------
2024-06-16 04:24 am-------30.06-------
2024-06-16 04:18 amNNE 6.0 12.0----30.06- 77.0-----
2024-06-16 04:12 amNNE 8.0 12.0----30.06- 77.0-----
2024-06-16 04:06 amNNE 11.1 13.0----30.06- 77.2-----
2024-06-16 04:00 amNNE 8.0 13.0----30.06-------
2024-06-16 03:54 amNNE 8.0 9.9----30.06-------
2024-06-16 03:48 amNNE 7.0 11.1----30.06- 77.2-----
2024-06-16 03:42 amNNE 7.0 9.9----30.05- 77.4-----
2024-06-16 03:36 amNNE 8.0 11.1----30.06- 77.2-----
2024-06-16 03:30 amNNE 8.0 9.9----30.06- 77.2-----
2024-06-16 03:24 amNNE 8.0 12.0----30.06- 76.8-----
2024-06-16 03:18 amNNE 8.0 13.0----30.06-------
2024-06-16 03:12 amNNE 11.1 15.0----30.06-------
2024-06-16 03:06 amNNE 9.9 15.9----30.06-------
2024-06-16 03:00 am N 9.9 14.0----30.06-0.03 77.4-----
2024-06-16 02:54 amNNE 9.9 13.0----30.06- 77.5-----
2024-06-16 02:48 amNNE 7.0 9.9----30.06- 77.4-----
2024-06-16 02:42 amNNE 8.9 11.1----30.06- 77.4-----
2024-06-16 02:36 amNNE 5.1 7.0----30.06- 77.4-----
2024-06-16 02:30 amNNE 4.1 7.0----30.06- 77.4-----
2024-06-16 02:24 amNNE 6.0 8.9----30.06- 77.4-----
2024-06-16 02:18 am-------30.06- 77.5-----
2024-06-16 02:12 am-------30.06- 77.5-----
2024-06-16 02:06 am-------30.06- 77.7-----
2024-06-16 02:00 amNNE 5.1 7.0----30.06-0.03 77.7-----
2024-06-16 01:48 am NE 7.0 8.9----30.06- 77.9-----
2024-06-16 01:42 am NE 6.0 8.9----30.06- 77.7-----
2024-06-16 01:36 am NE 6.0 11.1----30.07- 77.5-----
2024-06-16 01:24 amNNE 2.9 6.0----30.07- 77.4-----
2024-06-16 01:18 amNNE 4.1 7.0----30.07-------
2024-06-16 01:06 amNNE 5.1 12.0----30.08-------
2024-06-16 12:48 amNNE 5.1 7.0----30.08-------
2024-06-16 12:42 amNNE 7.0 11.1----30.08-------
2024-06-16 12:36 am NE 6.0 9.9----30.08-------
2024-06-16 12:30 amNNE 7.0 11.1----30.08-------
2024-06-16 12:24 am NE 5.1 6.0----30.09-------
2024-06-16 12:18 am NE 5.1 8.9----30.09- 77.5-----
2024-06-16 12:12 am NE 6.0 8.9----30.09- 77.4-----
2024-06-16 12:06 amNNE 4.1 7.0----30.09- 77.4-----
2024-06-16 12:00 amNNE 6.0 8.9----30.09+0.02------
2024-06-15 11:54 pmNNE 7.0 9.9----30.09-------